Tracking 32420 objects as of 8-Dec-2025
HD Live streaming from Space Station
objects crossing your sky now

DELTA 1 DEB

Track DELTA 1 DEB now!
10-day predictions


NORAD ID: 8682
Int'l Code: 1975-004J
Perigee: 722.6 km
Apogee: 938.0 km
Inclination: 97.8 °
Period: 101.4 minutes
Semi major axis: 7201 km
RCS: 0.0835 m2 (small)
Launch date: January 22, 1975
Source: United States (US)
Launch site: AIR FORCE WESTERN TEST RANGE (AFWTR)

Note: This is SATELLITE DEBRIS
Your satellite tracking list
Your tracking list is empty




NASA's NSSDC Master Catalog

Two Line Element Set (TLE):
1 08682U 75004J   25342.12302795  .00000738  00000-0  32192-3 0  9993
2 08682  97.7609  28.6902 0149528 294.5774  63.9886 14.20639985623185
Source of the keplerian elements: AFSPC